Delta, CO

10:38 PM MST on November 18, 2017 (GMT -0700)
Delta

Weather History for KAJZ - July, 2012

Change the Weather History Date:

Saturday, July 7, 2012

  Actual Average (KMTJ) Record (KMTJ)
Temperature  
Mean Temperature 76 °F -  
Max Temperature 87 °F 88 °F 96 °F (2002)
Min Temperature 66 °F 55 °F 54 °F (1997)
Cooling Degree Days 12    
Growing Degree Days 26 (Base 50)    
Moisture  
Dew Point 56 °F    
Average Humidity 58    
Maximum Humidity 78    
Minimum Humidity 28    
Precipitation  
Precipitation 0.04 in - - ()
Sea Level Pressure  
Sea Level Pressure 30.23 in    
Wind  
Wind Speed 4 mph ()    
Max Wind Speed 22 mph    
Max Gust Speed 29 mph    
Visibility 9.7 miles    
Events Thunderstorm    
Averages and records for this station are not official NWS values.
T = Trace of Precipitation, MM = Missing Value Source: Averaged Metar Reports

Daily Weather History Graph

Daily Weather History Graph

Search for Another Location

Airport or City:

Trip Planner

Search our weather history database for the weather conditions in past years. The results will help you decide how hot, cold, wet, or windy it might be!

Date:

Astronomy

Jul. 07, 2012 Rise Set
Actual Time 5:54 AM MDT 8:39 PM MDT
Civil Twilight 5:22 AM MDT 9:11 PM MDT
Nautical Twilight 4:43 AM MDT 9:50 PM MDT
Astronomical Twilight 3:58 AM MDT 10:35 PM MDT
Moon 11:03 PM MDT (7/7) 10:19 AM MDT (7/7)
Length of Visible Light 15h 48m
Length of Day
14h 45m
Waning Gibbous, 81% of the Moon is Illuminated
Jul 7
Waning Gibbous
Jul 10
Last Quarter
Jul 18
New
Jul 26
First Quarter
Aug 1
Full

Hourly Weather History & Observations

Time (MDT) Temp. Heat Index Dew Point Humidity Pressure Visibility Wind Dir Wind Speed Gust Speed Precip Events Conditions
12:15 AM 72.9 °F - 57.2 °F 58% 30.19 in 10.0 mi Calm Calm - N/A   Clear
12:35 AM 73.0 °F - 57.9 °F 59% 30.20 in 10.0 mi Calm Calm - N/A   Clear
12:55 AM 72.5 °F - 55.2 °F 54% 30.20 in 10.0 mi Calm Calm - N/A   Clear
1:15 AM 71.2 °F - 57.9 °F 63% 30.20 in 10.0 mi NNW 5.8 mph - N/A   Clear
1:35 AM 71.6 °F - 56.7 °F 59% 30.19 in 10.0 mi North 4.6 mph - N/A   Clear
1:55 AM 70.7 °F - 58.1 °F 64% 30.19 in 10.0 mi NNE 4.6 mph - N/A   Clear
2:15 AM 69.8 °F - 58.5 °F 67% 30.19 in 10.0 mi NNE 3.5 mph - N/A   Clear
2:35 AM 70.5 °F - 57.9 °F 64% 30.19 in 10.0 mi Calm Calm - N/A   Clear
2:55 AM 69.8 °F - 58.6 °F 68% 30.19 in 10.0 mi Calm Calm - N/A   Clear
3:15 AM 68.9 °F - 59.7 °F 72% 30.19 in 10.0 mi NE 3.5 mph - N/A   Clear
3:35 AM 69.3 °F - 57.7 °F 67% 30.19 in 10.0 mi North 4.6 mph - N/A   Clear
3:55 AM 69.1 °F - 57.6 °F 67% 30.19 in 10.0 mi Calm Calm - N/A   Clear
4:15 AM 68.4 °F - 58.3 °F 70% 30.20 in 10.0 mi Calm Calm - N/A   Clear
4:35 AM 69.1 °F - 57.0 °F 65% 30.20 in 10.0 mi Calm Calm - N/A   Clear
4:55 AM 68.9 °F - 57.4 °F 67% 30.21 in 10.0 mi Calm Calm - N/A   Clear
5:15 AM 68.2 °F - 57.4 °F 68% 30.21 in 10.0 mi North 6.9 mph - N/A   Clear
5:35 AM 67.6 °F - 57.2 °F 69% 30.21 in 10.0 mi NE 3.5 mph - N/A   Clear
5:55 AM 67.6 °F - 58.1 °F 71% 30.22 in 10.0 mi SSE 4.6 mph - N/A   Clear
6:15 AM 66.0 °F - 59.0 °F 78% 30.23 in 10.0 mi East 5.8 mph - N/A   Clear
6:35 AM 66.6 °F - 58.6 °F 76% 30.23 in 10.0 mi NE 4.6 mph - N/A   Clear
6:55 AM 66.4 °F - 58.8 °F 77% 30.23 in 10.0 mi NNE 3.5 mph - N/A   Clear
7:15 AM 67.3 °F - 59.4 °F 76% 30.24 in 10.0 mi Calm Calm - N/A   Clear
7:35 AM 68.9 °F - 58.5 °F 69% 30.25 in 10.0 mi Calm Calm - N/A   Clear
7:55 AM 68.9 °F - 59.4 °F 72% 30.25 in 10.0 mi South 3.5 mph - N/A   Clear
8:15 AM 68.2 °F - 59.5 °F 74% 30.25 in 10.0 mi Calm Calm - N/A   Clear
8:35 AM 70.2 °F - 57.4 °F 64% 30.25 in 10.0 mi Calm Calm - N/A   Clear
8:55 AM 71.8 °F - 57.6 °F 61% 30.26 in 10.0 mi Calm Calm - N/A   Clear
9:15 AM 72.7 °F - 56.5 °F 57% 30.26 in 10.0 mi Calm Calm - N/A   Clear
9:35 AM 74.3 °F - 56.5 °F 54% 30.26 in 10.0 mi Calm Calm - N/A   Clear
9:55 AM 75.4 °F - 57.0 °F 53% 30.26 in 10.0 mi Calm Calm - N/A   Scattered Clouds
10:15 AM 77.2 °F - 56.1 °F 48% 30.25 in 10.0 mi SSW 4.6 mph - N/A   Scattered Clouds
10:35 AM 79.0 °F - 54.1 °F 42% 30.25 in 10.0 mi Calm Calm - N/A   Mostly Cloudy
10:55 AM 80.1 °F 80.1 °F 54.7 °F 41% 30.25 in 10.0 mi SE 4.6 mph - N/A Thunderstorm Scattered Clouds
11:15 AM 79.9 °F - 54.1 °F 41% 30.25 in 10.0 mi SE 3.5 mph - N/A Thunderstorm Clear
11:35 AM 79.9 °F - 54.1 °F 41% 30.24 in 7.0 mi ESE 3.5 mph - N/A Thunderstorm Clear
11:55 AM 81.0 °F 80.5 °F 54.1 °F 39% 30.23 in 10.0 mi SSE 3.5 mph - N/A Thunderstorm Clear
12:15 PM 83.3 °F - 49.5 °F 31% 30.23 in 10.0 mi East 3.5 mph - N/A Thunderstorm Clear
12:55 PM 84.6 °F - 51.3 °F 32% 30.21 in 10.0 mi East 4.6 mph - N/A Thunderstorm Clear
1:15 PM 85.1 °F - 49.1 °F 29% 30.19 in 10.0 mi SE 3.5 mph - N/A Thunderstorm Clear
1:35 PM 86.7 °F - 50.2 °F 28% 30.19 in 10.0 mi South 4.6 mph - N/A Thunderstorm Clear
1:55 PM 87.6 °F - 51.3 °F 29% 30.18 in 10.0 mi SSE 8.1 mph - N/A Thunderstorm Thunderstorm
2:15 PM 87.4 °F - 51.8 °F 29% 30.18 in 10.0 mi SSW 9.2 mph - N/A Thunderstorm Clear
2:35 PM 86.9 °F - 51.6 °F 30% 30.18 in 10.0 mi SW 20.7 mph 26.5 mph N/A Thunderstorm Clear
2:55 PM 82.8 °F - 48.2 °F 30% 30.19 in 10.0 mi WSW 16.1 mph 23.0 mph N/A Thunderstorm Thunderstorm
3:15 PM 81.0 °F - 48.2 °F 32% 30.19 in 10.0 mi SW 12.7 mph 21.9 mph N/A Thunderstorm Clear
3:35 PM 81.0 °F - 48.2 °F 32% 30.20 in 10.0 mi WSW 8.1 mph - N/A Thunderstorm Clear
3:55 PM 81.7 °F - 48.4 °F 31% 30.21 in 10.0 mi West 5.8 mph - N/A Thunderstorm Thunderstorm
4:15 PM 80.2 °F - 50.4 °F 35% 30.23 in 10.0 mi SW 6.9 mph - N/A Thunderstorm Thunderstorm
4:35 PM 76.3 °F - 60.6 °F 58% 30.26 in 2.5 mi NNE 15.0 mph - 0.01 in   Overcast
4:55 PM 69.1 °F - 61.3 °F 76% 30.27 in 2.5 mi North 21.9 mph 28.8 mph 0.02 in Thunderstorm Thunderstorm
5:15 PM 70.3 °F - 62.2 °F 75% 30.26 in 7.0 mi North 19.6 mph 26.5 mph 0.02 in   Overcast
5:35 PM 72.5 °F - 60.6 °F 66% 30.26 in 10.0 mi North 16.1 mph 21.9 mph 0.02 in   Mostly Cloudy
5:55 PM 73.4 °F - 59.7 °F 62% 30.25 in 10.0 mi North 13.8 mph 19.6 mph 0.02 in   Scattered Clouds
6:15 PM 73.4 °F - 57.6 °F 58% 30.25 in 10.0 mi North 18.4 mph - N/A   Clear
6:35 PM 73.4 °F - 57.2 °F 57% 30.25 in 10.0 mi North 18.4 mph 25.3 mph N/A Thunderstorm Scattered Clouds
6:55 PM 73.2 °F - 57.2 °F 57% 30.26 in 10.0 mi NNE 11.5 mph - N/A   Clear
7:15 PM 73.0 °F - 57.4 °F 58% 30.26 in 10.0 mi ENE 8.1 mph - N/A   Clear
7:35 PM 71.6 °F - 58.5 °F 63% 30.25 in 10.0 mi ENE 9.2 mph - N/A   Clear
7:55 PM 71.2 °F - 58.1 °F 63% 30.26 in 10.0 mi East 6.9 mph - N/A   Clear
8:15 PM 71.2 °F - 57.4 °F 61% 30.26 in 10.0 mi East 5.8 mph - N/A   Clear
8:35 PM 70.7 °F - 57.2 °F 62% 30.27 in 10.0 mi East 5.8 mph - N/A   Clear
8:55 PM 70.7 °F - 56.5 °F 61% 30.27 in 10.0 mi ENE 6.9 mph - N/A   Clear
9:15 PM 69.8 °F - 58.1 °F 66% 30.26 in 10.0 mi NE 5.8 mph - N/A   Scattered Clouds
9:35 PM 70.2 °F - 58.3 °F 66% 30.28 in 10.0 mi East 4.6 mph - N/A   Overcast
9:55 PM 69.3 °F - 59.4 °F 71% 30.29 in 10.0 mi ENE 9.2 mph - N/A   Overcast
10:15 PM 70.0 °F - 57.2 °F 64% 30.29 in 10.0 mi NE 8.1 mph - N/A   Mostly Cloudy
10:35 PM 69.4 °F - 58.1 °F 67% 30.29 in 10.0 mi NNE 9.2 mph - N/A   Scattered Clouds
10:55 PM 68.4 °F - 59.0 °F 72% 30.30 in 10.0 mi NNE 8.1 mph - N/A   Clear
11:15 PM 68.0 °F - 59.7 °F 75% 30.30 in 10.0 mi NNE 8.1 mph - N/A   Clear
11:35 PM 68.0 °F - 59.0 °F 73% 30.30 in 10.0 mi ENE 4.6 mph - N/A   Clear
11:55 PM 67.6 °F - 59.0 °F 74% 30.29 in 10.0 mi East 3.5 mph - N/A   Clear